FW4030 Weather Reports


Display with metric or nautical units.
time (UTC)temp
F
wind
direction
speed
MPH
gust
MPH
rain 1hr
in
rain 24hr
in
rain mn
in
humidity
%
barometer
mb
20260902223719 65 120 4.0 7.0 0.00 0.00 0.00 74 1029.8
20260902222719 65 117 4.0 7.0 0.00 0.00 0.00 74 1029.7
20260902222622 65 147 2.0 5.0 0.00 0.00 0.00 74 1029.7
20260902221618 65 120 3.0 7.0 0.00 0.00 0.00 74 1029.7
20260902220620 64 129 4.0 7.0 0.00 0.00 0.00 75 1029.8
20260902215713 64 116 5.0 7.0 0.00 0.00 0.00 76 1029.9
20260902214712 64 131 2.0 4.0 0.00 0.00 0.00 76 1029.9
20260902214611 64 127 2.0 4.0 0.00 0.00 0.00 76 1029.9
20260902214514 64 127 4.0 5.0 0.00 0.00 0.00 76 1029.9
20260902213611 64 126 2.0 5.0 0.00 0.00 0.00 77 1029.9
20260902212611 64 135 1.0 2.0 0.00 0.00 0.00 77 1030.0
20260902211613 64 135 1.0 5.0 0.00 0.00 0.00 77 1030.0
20260902210613 64 112 1.0 2.0 0.00 0.00 0.00 77 1030.3
20260902210512 64 114 0.0 2.0 0.00 0.00 0.00 77 1030.1
20260902205511 64 131 2.0 4.0 0.00 0.00 0.00 77 1030.1
20260902204414 64 135 1.0 2.0 0.00 0.00 0.00 78 1030.1
20260902203413 64 135 1.0 2.0 0.00 0.00 0.00 78 1030.3
20260902202511 64 135 2.0 4.0 0.00 0.00 0.00 78 1030.3
20260902202413 64 135 2.0 4.0 0.00 0.00 0.00 78 1030.3
20260902201412 64 134 0.0 1.0 0.00 0.00 0.00 78 1030.3
20260902195413 64 112 2.0 5.0 0.00 0.00 0.00 79 1030.4
20260902194414 64 135 1.0 2.0 0.00 0.00 0.00 80 1030.4
20260902193413 64 135 0.0 1.0 0.00 0.00 0.00 79 1030.5
20260902192411 64 112 2.0 3.0 0.00 0.00 0.00 79 1030.6
20260902191413 64 112 0.0 1.0 0.00 0.00 0.00 79 1030.4
20260902190412 65 112 2.0 3.0 0.00 0.00 0.00 79 1030.4
20260902184411 65 112 1.0 2.0 0.00 0.00 0.00 79 1030.4
20260902183511 65 135 0.0 0.0 0.00 0.00 0.00 78 1030.3
20260902182513 65 112 1.0 2.0 0.00 0.00 0.00 78 1030.4
20260902182412 65 112 0.0 2.0 0.00 0.00 0.00 78 1030.4
20260902181413 66 112 1.0 2.0 0.00 0.00 0.00 78 1030.4
20260902180511 66 112 1.0 2.0 0.00 0.00 0.00 77 1030.3
20260902175513 66 180 1.0 2.0 0.00 0.00 0.00 77 1030.2
20260902174514 66 180 2.0 4.0 0.00 0.00 0.00 77 1030.1
20260902173512 66 112 2.0 5.0 0.00 0.00 0.00 78 1030.2
20260902172512 66 180 2.0 3.0 0.00 0.00 0.00 79 1030.1
20260902171512 66 180 1.0 2.0 0.00 0.00 0.00 80 1030.1
20260902170511 66 180 0.0 0.0 0.00 0.00 0.00 80 1030.1
20260902165511 65 180 1.0 1.0 0.00 0.00 0.00 81 1030.1
20260902164512 65 180 2.0 3.0 0.00 0.00 0.00 82 1030.2
20260902163512 65 180 0.0 2.0 0.00 0.00 0.00 81 1030.3
20260902162513 65 180 2.0 3.0 0.00 0.00 0.00 80 1030.3
20260902161611 65 180 3.0 4.0 0.00 0.00 0.00 81 1030.1
20260902160613 65 180 0.0 1.0 0.00 0.00 0.00 80 1030.3
20260902155711 65 180 0.0 1.0 0.00 0.00 0.00 79 1030.2
20260902154711 65 180 0.0 2.0 0.00 0.00 0.00 77 1030.2
20260902153713 67 180 1.0 2.0 0.00 0.00 0.00 72 1030.3
20260902152810 68 130 2.0 3.0 0.00 0.00 0.00 66 1030.4
20260902151813 69 141 5.0 8.0 0.00 0.00 0.00 64 1030.4
20260902150812 70 119 3.0 5.0 0.00 0.00 0.00 63 1030.4
20260902145813 70 180 2.0 4.0 0.00 0.00 0.00 62 1030.4
20260902144811 70 180 4.0 8.0 0.00 0.00 0.00 60 1030.4
20260902142831 71 156 4.0 7.0 0.00 0.00 0.00 61 1030.3
20260902141835 71 158 6.0 9.0 0.00 0.00 0.00 62 1030.4
20260902140834 71 132 3.0 4.0 0.00 0.00 0.00 62 1030.2
20260902135932 72 139 3.0 6.0 0.00 0.00 0.00 61 1030.3
20260902135031 73 120 7.0 11.0 0.00 0.00 0.00 61 1030.3
20260902134034 73 170 6.0 10.0 0.00 0.00 0.00 61 1030.2
20260902132933 75 139 4.0 6.0 0.00 0.00 0.00 59 1030.3
20260902131933 75 136 5.0 9.0 0.00 0.00 0.00 61 1030.4
20260902131032 74 134 6.0 12.0 0.00 0.00 0.00 63 1030.2
20260902124935 72 131 5.0 7.0 0.00 0.00 0.00 71 1030.3
20260902124833 71 135 4.0 6.0 0.00 0.00 0.00 71 1030.4
20260902123832 69 134 2.0 4.0 0.00 0.00 0.00 72 1030.5
20260902122850 68 131 4.0 6.0 0.00 0.00 0.00 71 1030.6
20260902122732 68 131 3.0 5.0 0.00 0.00 0.00 70 1030.4
20260902121732 69 129 5.0 9.0 0.00 0.00 0.00 69 1030.6
20260902115733 69 180 6.0 9.0 0.00 0.00 0.00 69 1030.8
20260902114731 70 131 5.0 8.0 0.00 0.00 0.00 69 1030.7
20260902113733 70 118 4.0 9.0 0.00 0.00 0.00 69 1030.7
20260902112732 70 140 5.0 7.0 0.00 0.00 0.00 69 1030.7
20260902112633 70 157 4.0 7.0 0.00 0.00 0.00 69 1030.7
20260902111633 70 155 5.0 9.0 0.00 0.00 0.00 70 1030.8
20260902110634 69 133 1.0 2.0 0.00 0.00 0.00 71 1030.9
20260902110533 69 142 1.0 2.0 0.00 0.00 0.00 71 1030.8
20260902105632 69 122 5.0 10.0 0.00 0.00 0.00 72 1030.9
20260902104635 69 112 5.0 9.0 0.00 0.00 0.00 72 1030.9
20260902102633 68 118 5.0 11.0 0.00 0.00 0.00 73 1030.7
20260902101633 68 126 5.0 7.0 0.00 0.00 0.00 74 1030.8
20260902094732 67 137 4.0 8.0 0.00 0.00 0.00 74 1031.2
20260902093734 67 139 3.0 5.0 0.00 0.00 0.00 75 1031.0
20260902092735 67 130 5.0 8.0 0.00 0.00 0.00 75 1031.0
20260902092630 67 129 5.0 10.0 0.00 0.00 0.00 75 1030.9
20260902091634 67 157 3.0 6.0 0.00 0.00 0.00 75 1030.8
20260902091533 67 129 6.0 9.0 0.00 0.00 0.00 75 1030.9
20260902090534 67 114 2.0 7.0 0.00 0.00 0.00 75 1030.8
20260902085532 67 128 6.0 8.0 0.00 0.00 0.00 75 1030.8
20260902084535 66 138 5.0 7.0 0.00 0.00 0.00 76 1030.9
20260902083631 65 133 3.0 5.0 0.00 0.00 0.00 76 1030.9
20260902082633 65 126 3.0 8.0 0.00 0.00 0.00 75 1030.7
20260902081731 66 112 6.0 9.0 0.00 0.00 0.00 76 1030.6
20260902080732 66 120 3.0 6.0 0.00 0.00 0.00 79 1030.6
20260902075633 65 129 4.0 6.0 0.00 0.00 0.00 80 1030.6
20260902074633 64 129 6.0 11.0 0.00 0.00 0.00 83 1030.6
20260902073732 62 127 5.0 10.0 0.00 0.00 0.00 86 1030.5
20260902072831 61 130 2.0 6.0 0.00 0.00 0.00 88 1030.5
20260902072732 61 131 2.0 5.0 0.00 0.00 0.00 88 1030.7
20260902071831 61 112 3.0 7.0 0.00 0.00 0.00 89 1030.5
20260902070832 60 112 2.0 3.0 0.00 0.00 0.00 90 1030.6
20260902064931 59 112 1.0 4.0 0.00 0.00 0.00 91 1030.5
20260902064832 59 112 0.0 0.0 0.00 0.00 0.00 91 1030.5
20260902063931 58 112 2.0 4.0 0.00 0.00 0.00 91 1030.5
20260902063833 58 112 3.0 4.0 0.00 0.00 0.00 91 1030.6
20260902062931 58 112 2.0 4.0 0.00 0.00 0.00 92 1030.5
20260902061932 58 122 2.0 3.0 0.00 0.00 0.00 92 1030.4
20260902061833 58 135 2.0 3.0 0.00 0.00 0.00 92 1030.4
20260902060835 57 135 0.0 1.0 0.00 0.00 0.00 93 1030.4
20260902055832 57 135 1.0 2.0 0.00 0.00 0.00 93 1030.4
20260902054832 57 112 2.0 2.0 0.00 0.00 0.00 93 1030.3
20260902052832 56 135 0.0 2.0 0.00 0.00 0.00 93 1030.3
20260902050732 56 112 0.0 1.0 0.00 0.00 0.00 92 1030.3
20260902045733 56 112 0.0 1.0 0.00 0.00 0.00 92 1030.3
20260902045631 56 112 1.0 2.0 0.00 0.00 0.00 92 1030.2
20260902043633 56 112 1.0 2.0 0.00 0.00 0.00 92 1030.2
20260902042633 56 112 1.0 1.0 0.00 0.00 0.00 92 1030.3
20260902041632 56 112 1.0 2.0 0.00 0.00 0.00 92 1030.2
20260902040731 56 112 0.0 0.0 0.00 0.00 0.00 92 1030.3
20260902035750 57 135 0.0 0.0 0.00 0.00 0.00 92 1030.2
20260902033833 57 135 0.0 0.0 0.00 0.00 0.00 92 1030.1
20260902032832 57 135 0.0 0.0 0.00 0.00 0.00 92 1030.3
20260902031831 57 135 1.0 2.0 0.00 0.00 0.00 92 1030.2
20260902030833 57 135 1.0 2.0 0.00 0.00 0.00 92 1030.4
20260902025832 57 115 1.0 2.0 0.00 0.00 0.00 92 1030.3
20260902025731 57 112 1.0 2.0 0.00 0.00 0.00 92 1030.4
20260902024732 57 112 0.0 0.0 0.00 0.00 0.00 92 1030.4
20260902023734 56 112 0.0 0.0 0.00 0.00 0.00 92 1030.3
20260902023633 56 112 0.0 0.0 0.00 0.00 0.00 92 1030.4
20260902022631 56 112 1.0 1.0 0.00 0.00 0.00 92 1030.3
20260902021537 57 112 0.0 0.0 0.00 0.00 0.00 92 1030.5
20260902021432 57 112 0.0 0.0 0.00 0.00 0.00 92 1030.4
20260902020531 57 112 0.0 0.0 0.00 0.00 0.00 92 1030.4
20260902015532 57 112 0.0 0.0 0.00 0.00 0.00 92 1030.4
20260902015433 57 112 0.0 0.0 0.00 0.00 0.00 92 1030.5
20260902014433 57 112 0.0 1.0 0.00 0.00 0.00 92 1030.8
20260902013433 57 115 1.0 2.0 0.00 0.00 0.00 92 1030.6
20260902013334 57 135 1.0 1.0 0.00 0.00 0.00 92 1030.6
20260902013234 57 135 0.0 0.0 0.00 0.00 0.00 92 1030.6
20260902011333 57 135 0.0 0.0 0.00 0.00 0.00 93 1030.5
20260902011248 57 135 0.0 0.0 0.00 0.00 0.00 93 1030.5
20260902010233 57 135 1.0 1.0 0.00 0.00 0.00 93 1030.4
20260902005231 57 135 1.0 2.0 0.00 0.00 0.00 93 1030.4
20260902003233 56 112 0.0 0.0 0.00 0.00 0.00 93 1030.4
20260902002332 56 112 0.0 0.0 0.00 0.00 0.00 94 1030.5
20260902001333 56 112 0.0 0.0 0.00 0.00 0.00 94 1030.6
20260902001233 56 112 0.0 0.0 0.00 0.00 0.00 94 1030.5
20260902001132 56 112 0.0 0.0 0.00 0.00 0.00 94 1030.5
20260902000131 56 112 0.0 0.0 0.00 0.00 0.00 94 1030.7
20260901235132 56 112 0.0 0.0 0.00 0.00 0.00 94 1030.6
20260901234132 55 180 0.0 0.0 0.00 0.00 0.00 94 1030.7
20260901232233 55 180 0.0 0.0 0.00 0.00 0.00 94 1030.9
20260901231231 55 180 0.0 0.0 0.00 0.00 0.00 94 1030.9
20260901225232 55 180 0.0 0.0 0.00 0.00 0.00 94 1030.8
20260901224331 55 180 0.0 0.0 0.00 0.00 0.00 93 1030.8